IRIDIUM 50 [+]

Last updated on Tue Aug 28 2018 14:42:36 GMT+0000 (Coordinated Universal Time)

1 25172U 98010D 18239.38197031 .00000164 00000-0 51520-4 0 9998 2 25172 86.4016 168.0682 0002305 86.4207 273.7252 14.34220365 74281

Satellite not in orbit

IRIDIUM 50 [+]